www.pogodaiklimat.ru

Погода и климат >> Архив погоды >> Португалия >> Каштелу-Бранку


ПОГОДА в Каштелу-Бранку

  • Прогноз погоды в Каштелу-Бранку
  • Монитор погоды в Каштелу-Бранку

АРХИВ ПОГОДЫ в Каштелу-Бранку

Время (UTC), дата Ветер
(напр.,м/с)
 
Видим.   Явления Облачность Т
(С)
Тd
(С)
f
(%)
Тe
(С)
Тes
(С)
Комфортность P
(гПа)
Po
(гПа)
Тmin
(С)
Tmax
(С)
R
(мм)
R24
(мм)
S
(см)
09 12.05 З 9 18 км 4/4 420 м
[Cu Sc Ac lent Ci fib]
+16.2 +11.0 71 +14 +15 1010.0 1005.1
12 12.05 З 7 20 км 4/4 480 м
[Cu Sc Ac lent]
+17.6 +10.7 64 +17 +19 1013.8 1008.9
15 12.05 З 8 20 км 3/1 600 м
[Cu Sc Ci fib]
+13.6 +17.7 100 +11 +14 1016.2 1011.3
18 12.05 З 6 20 км 3/1 660 м
[Cu Sc Ci fib]
+18.2 +13.2 73 +18 +20 1016.7 1011.8 +19.4
09 13.05 ЮЗ 7 20 км 9/5 480 м
[Cu Sc Ac lent Ci sp]
+17.0 +13.0 77 +16 +16 1019.3 1014.3
12 13.05 ЮЗ 8 18 км 9/6 420 м
[Cu Sc Ac lent Ci sp]
+18.0 +14.1 78 +17 +18 1019.3 1014.4
15 13.05 ЮЗ 7 18 км 10/8 420 м
[Cu Sc Ac lent Cs]
+19.1 +16.0 82 +20 +20 1018.4 1031.5
18 13.05 ЮЗ 9 15 км 10/8 420 м
[Cu Sc Ac As]
+17.6 +16.1 91 +16 +16 1017.2 1012.3 +19.4
09 14.05 З 5 20 км 9/6 420 м
[Cu Sc Ac trans Ci sp]
+16.4 +13.7 84 +15 +16 1016.5 1020.8
12 14.05 З 6 20 км 9/8 540 м
[Cu Sc Ac lent Ci sp]
+18.4 +14.6 79 +18 +19 1022.4 1017.5
15 14.05 З 5 20 км 9/4 600 м
[Cu Sc Ac trans Ci sp]
+18.6 +12.6 68 +19 +22 1022.4 1017.5
18 14.05 З 4 20 км 9/3 600 м
[Cu Sc Ac trans Ci sp]
+18.4 +12.0 66 +19 +21 1022.1 1017.2 +19.6
09 15.05 ЮЗ 5 10 км 10/10 150 м
[Cu Sc]
+17.4 +17.0 97 +17 +17 1022.1 1017.2
12 15.05 З 6 8000 м слаб. морось 10/10 120 м
[Frnb]
+17.6 +17.2 98 +17 +17 1022.3 1017.4 0.0
15 15.05 З 6 3000 м слаб. морось 10/10 60 м
[Frnb]
+17.8 +16.9 94 +17 +17 1021.6 1016.7
18 15.05 СЗ 9 12 км {морось} 9/6 300 м
[Cu Sc Ac lent Ci sp]
+17.8 +14.6 82 +17 +17 1021.7 1016.8 +18.9 0.1
09 16.05 С 1 20 км 5/5 360 м
[Cu Sc Ci fib]
+15.4 +12.7 84 +16 +18 1024.9 1019.9
12 16.05 ЮЗ 3 20 км 6/6 420 м
[Cu Sc Ci fib]
+17.2 +12.8 75 +17 +23 1025.8 1020.9
15 16.05 З 3 20 км 6/4 420 м
[Cu Sc Ci fib]
+19.0 +12.3 65 +20 +29 1025.1 1020.2
18 16.05 Ю 3 20 км 5/3 420 м
[Cu Sc Ci fib]
+19.0 +12.3 65 +20 +24 1024.4 1019.5 +20.4
09 17.05 С 1 20 км 5/3 540 м
[Cu Sc Ci fib]
+16.0 +11.1 73 +17 +20 1026.2 1021.2
12 17.05 Ю 3 20 км 6/3 600 м
[Cu Sc Ci fib]
+17.8 +12.7 72 +18 +27 1026.5 1021.6
15 17.05 ЮЗ 4 20 км 6/3 600 м
[Cu Sc Ci fib]
+18.8 +11.7 63 +19 +28 1026.4 1021.5
18 17.05 ЮЗ 2 20 км 8/3 600 м
[Cu Sc Ci fib]
+19.4 +13.1 67 +21 +26 комфорт 1025.3 1020.3 +20.2
09 18.05 В 2 20 км {морось} 9/9 180 м
[Cu Sc]
+16.0 +14.4 90 +16 +16 1024.5 1019.5
12 18.05 З 7 9000 м слаб. морось 9/9 240 м
[Cu Sc]
+17.0 +15.4 90 +16 +16 1024.7 1019.8 0.2
15 18.05 В 3 15 км 9/8 300 м
[Cu Sc Ci fib]
+18.3 +16.3 88 +19 +22 1024.8 1019.9
18 18.05 З 6 20 км 6/6 420 м
[Cu Sc]
+19.4 +17.0 86 +21 +22 комфорт 1024.3 1019.4 +20.2 0.2

 

Местоположение метеостанции Каштелу-Бранку (Португалия): широта 38.52 долгота -28.71 высота над уровнем моря 41 м.

В архиве по умолчанию представлена погода в Каштелу-Бранку за последнюю неделю. Архивные данные за месяц целиком и за предыдущие месяцы, начиная с января 2011 года, Вы можете получить, выбрав интересующий диапазон дат из раскрывающегося списка и нажав кнопку "Ввод!".


*Определитесь, кто Вы:
робот инопланетянин человек

Внимание! Время в таблицах - всемирное. Для получения местного времени необходимо прибавить поправку, которая равна 0 ч.

Смотрите также архив погоды в соседних городах и на ближайших метеорологических станциях:

Погода в Орте (Португалия) (7 км)
Погода в Пико (Португалия) (24 км)
Погода в Сан-Жоржи (Португалия) (49 км)
Погода на Острове Грасьоса (Португалия) (86 км)
Погода в Ангра-ду-Эроижму (Португалия) (131 км)
Погода в Аэропорту Лажеша (Португалия) (143 км)
Погода на Флошише (Португалия) (233 км)
Погода в Понта-Делгаде (Португалия) (278 км)
Погода в Санта-Марии (Португалия) (357 км)
Погода в Фуншале (Португалия) (1252 км)

Пояснения к столбцам:

Ветер - указаны скорость ветра в м/с - средняя за 10 мин, порывы в срок и между сроками (в фигурных скобках) и направление, откуда дует ветер: С - северный, СВ - северо-восточный, В - восточный, ЮВ - юго-восточный, Ю - южный, ЮЗ - юго-западный, З - западный, СЗ - северо-западный.
Видимость - горизонтальная дальность видимости в метрах или километрах. При видимости от 1 до 10 км при отсутствии осадков обычно наблюдается дымка, при ухудшении видимости до 1 км и менее - туман. В сухую погоду видимость может ухудшаться дымом, пылью или мглою.
Явления - указаны атмосферные явления, наблюдавшиеся в срок или в последний час перед сроком; фигурными скобками обозначены явления, наблюдавшиеся между сроками (за 1-3 часа до срока); квадратными скобками обозначены град или гололедные отложения с указанием их диаметра в мм.
Облачность - указаны через наклонную черту общая и нижняя облачность в баллах и высота нижней границы облаков в метрах; квадратными скобками обозначены формы облаков: Ci - перистые, Cs - перисто-слоистые, Cc - перисто-кучевые, Ac - высококучевые, As - высокослоистые, Sc - слоисто-кучевые, Ns - слоисто-дождевые, Cu - кучевые, Cb - кучево-дождевые. Подробнее классификацию облаков см. в Атласе облаков (PDF).
T - Температура воздуха - температура, измеренная на высоте 2 м над землей.
Td - Температура точки росы - температура, при понижении до которой содержащийся в воздухе водяной пар достигнет насыщения.
f - Относительная влажность воздуха - влажноcть воздуха, измеренная на высоте 2 м над землей.
Te - Эффективная температура - температура, которую ощущает одетый по сезону человек в тени. Характеристика душности погоды. При расчете учитывается влияние влажности воздуха и скорости ветра на теплоощущения человека.
Tes - Эффективная температура на солнце - температура, которую ощущает человек, с поправкой на солнечный нагрев. Характеристика знойности погоды. Зависит от высоты солнца над горизонтом, облачности и скорости ветра. Ночью, в пасмурную погоду, а также при ветре 12 м/с и более поправка равна нулю.
P - Атмосферное давление - приведенное к уровню моря атмосферное давление.
Po - Атмосферное давление - измеренное на уровне метеостанции атмосферное давление.
Tmin - Минимальная температура - минимум температуры воздуха на высоте 2 м над землей.
Tmax - Максимальная температура - максимум температуры воздуха на высоте 2 м над землей.
R - Количество осадков - Количество выпавших осадков за период времени, мм. При наведении курсора мыши на число - период времени, за который выпало указанное количество осадков.
R24 - Количество осадков - Количество выпавших осадков за 24 часа, мм.
S - Снежный покров - Высота снежного покрова, см. При наведении курсора мыши на число - состояние снежного покрова и степень покрытия местности в баллах.